This demonstration page uses our WeatherBlox Daily Observations layout. Learn more.

Left ArrowRight Arrow

Hourly Observations for April 20, 2020

Temp ( °F °C ) Dew Point ( °F °C ) Humidity (%) Winds ( mph kmh ) Pressure ( in mb ) Visibility ( mi km ) Precip ( " mm )
12:52 am 00:52 Mostly Cloudy 48 8.9 36 2.2 63 63 WNW 3 6 29.87 1012 10 16 0.00 0.00
1:52 am 01:52 Cloudy with Light Rain 47 8.3 38 3.3 71 71 N 6 9 29.89 1012 10 16 0.00 0.00
2:52 am 02:52 Cloudy 48 8.9 36 2.2 63 63 NNE 7 11 29.86 1011 10 16 0.00 0.00
3:52 am 03:52 Cloudy 47 8.3 38 3.3 71 71 N 3 6 29.85 1011 10 16 0.00 0.00
4:52 am 04:52 Partly Cloudy 47 8.3 37 2.8 69 69 Calm 29.85 1011 10 16 0.00 0.00
5:52 am 05:52 Mostly Cloudy 45 7.2 37 2.8 74 74 Calm 29.84 1011 10 16 0.00 0.00
6:52 am 06:52 Partly Cloudy 43 6.1 37 2.8 80 80 Calm 29.84 1011 10 16 0.00 0.00
7:52 am 07:52 Mostly Cloudy 45 7.2 40 4.4 83 83 N 8 13 29.86 1011 10 16 0.00 0.00
8:52 am 08:52 Partly Cloudy 51 10.6 37 2.8 59 59 SE 3 6 29.84 1011 10 16 0.00 0.00
9:52 am 09:52 Partly Cloudy 54 12.2 35 1.7 49 49 S 8 13 29.82 1010 10 16 0.00 0.00
10:52 am 10:52 Sunny 60 15.6 36 2.2 41 41 W 13 20 29.81 1010 10 16 0.00 0.00
11:52 am 11:52 Mostly Sunny 64 17.8 36 2.2 35 35 WNW 18 30 29.80 1009 10 16 0.00 0.00
12:52 pm 12:52 Mostly Sunny 66 18.9 33 0.6 29 29 WNW 16 26 29.78 1009 10 16 0.00 0.00
1:52 pm 13:52 Mostly Sunny 68 20 31 -0.6 25 25 WNW 20 31 29.76 1008 10 16 0.00 0.00
2:52 pm 14:52 Partly Cloudy 69 20.6 31 -0.6 24 24 NW 17 28 29.74 1007 10 16 0.00 0.00
3:52 pm 15:52 Partly Cloudy 72 22.2 30 -1.1 21 21 WNW 16 26 29.72 1006 10 16 0.00 0.00
4:52 pm 16:52 Mostly Cloudy 70 21.1 27 -2.8 20 20 WNW 22 35 29.71 1006 10 16 0.00 0.00
5:52 pm 17:52 Mostly Cloudy 69 20.6 29 -1.7 22 22 NW 20 31 29.72 1006 10 16 0.00 0.00
6:52 pm 18:52 Partly Cloudy 68 20 29 -1.7 23 23 NW 24 39 29.72 1007 10 16 0.00 0.00
7:52 pm 19:52 Partly Cloudy 64 17.8 32 0 30 30 NNW 16 26 29.75 1008 10 16 0.00 0.00
8:52 pm 20:52 Partly Cloudy 59 15 32 0 36 36 NW 10 17 29.79 1009 10 16 0.00 0.00
9:52 pm 21:52 Clear 58 14.4 32 0 38 38 WNW 9 15 29.82 1010 10 16 0.00 0.00
10:52 pm 22:52 Clear 54 12.2 33 0.6 45 45 N 6 9 29.84 1011 10 16 0.00 0.00
11:52 pm 23:52 Clear 52 11.1 33 0.6 49 49 Calm 29.85 1011 10 16 0.00 0.00

Powered by AerisWeather